Find Digui Tongxin Shiyan Wei.

NORAD ID: 52716 Int'l Des: 2022-056 Owner: CGSTL Country: CN operational
LEOCIRCULARPOLAR

实时位置

正在加载3D地球...

关于 Digui Tongxin Shiyan Wei.

正在加载描述...

即将过境

Passes for default location (London). Set your location on the main map for personalized predictions.

高度历史

Loading altitude history...

两行轨道根数

1 52716U 22056A 26104.87837955 .00000114 00000-0 59848-4 0 9995
2 52716 86.0031 51.6049 0018037 219.3210 140.6660 14.04378500200000
Epoch: Apr 14, 2026 • Age: 4 hours

当前状态

高度 874.3 km
速度 7.42 km/s
星下点 -21.13°S, 8°E
发射日期 May 20, 2022
运行时间 3.9 years
类型 other

技术详情

分类 Payload
质量 300.00 kg
干质量 300.00 kg
总质量 300.00 kg
长度 2.50 m
直径 0.80 m
跨度 2.50 m
形状 Box + 2 Pan
制造商 CGSTL
阶段状态 In Orbit
所有者/国家 CGSTL/CN

Most Searched